Location: Unspecified
(0.0000°N, 0.0000°E)
Time: 16:53:55
(UTC+00:00)

Transit 4A - All Passes

Search period start: 13 December 2018 00:00
Search period end: 23 December 2018 00:00
Orbit: 870 x 975 km, 66.8° (Epoch: 12 December)

Date Brightness Start Highest point End Pass type
(mag) Time Alt. Az. Time Alt. Az. Time Alt. Az.
13 Dec - 01:38:33 10° S 01:43:43 31° ESE 01:48:47 10° NE night (unlit)
13 Dec - 03:25:41 10° WSW 03:29:45 19° WNW 03:33:48 10° NNW night (unlit)
13 Dec - 12:52:39 10° NE 12:55:00 12° ENE 12:57:21 10° E daylight
13 Dec - 14:34:57 10° NNW 14:41:05 57° WSW 14:47:20 10° S daylight
14 Dec - 01:47:16 10° S 01:53:01 55° ESE 01:58:41 10° NNE night (unlit)
14 Dec - 03:38:22 10° WNW 03:39:05 10° WNW 03:39:49 10° WNW night (unlit)
14 Dec - 12:59:40 10° NNE 13:04:19 22° ENE 13:09:02 10° ESE daylight
14 Dec - 14:44:51 10° NW 14:50:25 33° WSW 14:56:04 10° S daylight
15 Dec - 01:56:24 10° SSW 02:02:19 85° WNW 02:08:07 10° NNE night (unlit)
15 Dec - 13:07:56 10° N 13:13:38 37° ENE 13:19:25 10° SE daylight
15 Dec - 14:55:21 10° WNW 14:59:46 20° WSW 15:04:13 10° SSW daylight
16 Dec - 00:23:15 10° SE 00:25:28 12° ESE 00:27:41 10° E night (unlit)
16 Dec - 02:05:57 10° SW 02:11:36 48° WNW 02:17:10 10° N night (unlit)
16 Dec - 13:16:45 10° N 13:22:56 63° ENE 13:29:14 10° SSE daylight
16 Dec - 15:07:41 10° W 15:09:09 11° WSW 15:10:37 10° SW daylight
17 Dec - 00:30:23 10° SSE 00:34:50 22° ESE 00:39:13 10° ENE night (unlit)
17 Dec - 02:15:59 10° SW 02:20:53 28° WNW 02:25:44 10° NNW night (unlit)
17 Dec - 13:25:58 10° NNW 13:32:14 79° WSW 13:38:38 10° SSE daylight
18 Dec - 00:38:43 10° S 00:44:09 38° ESE 00:49:30 10° NE night (unlit)
18 Dec - 02:26:50 10° WSW 02:30:12 16° WNW 02:33:32 10° NW night (unlit)
18 Dec - 11:51:58 10° NE 11:55:28 15° ENE 11:58:59 10° ESE daylight
18 Dec - 13:35:34 10° NW 13:41:33 47° WSW 13:47:38 10° S daylight
19 Dec - 00:47:36 10° SSW 00:53:28 68° ESE 00:59:12 10° NNE night (unlit)
19 Dec - 11:59:39 10° NNE 12:04:47 27° ENE 12:10:00 10° SE daylight
19 Dec - 13:45:39 10° NW 13:50:53 28° WSW 13:56:12 10° SSW daylight
20 Dec - 00:56:54 10° SSW 01:02:45 70° WNW 01:08:30 10° NNE night (unlit)
20 Dec - 12:08:09 10° N 12:14:05 45° ENE 12:20:08 10° SE daylight
20 Dec - 13:56:31 10° WNW 14:00:14 16° WSW 14:03:59 10° SSW daylight
20 Dec - 23:22:37 10° SE 23:25:56 15° ESE 23:29:12 10° ENE night (unlit)
21 Dec - 01:06:36 10° SW 01:12:02 39° WNW 01:17:23 10° N night (unlit)
21 Dec - 12:17:07 10° NNW 12:23:24 76° ENE 12:29:46 10° SSE daylight
21 Dec - 23:30:24 10° SSE 23:35:17 27° ESE 23:40:05 10° NE night (unlit)
22 Dec - 01:16:52 10° WSW 01:21:19 23° WNW 01:25:45 10° NNW night (unlit)
22 Dec - 10:46:01 10° ENE 10:46:35 10° ENE 10:47:09 10° ENE daylight
22 Dec - 12:26:29 10° NNW 12:32:41 65° WSW 12:39:01 10° S daylight
22 Dec - 23:38:58 10° S 23:44:36 47° ESE 23:50:07 10° NE night (unlit)
